Location: Unspecified
(43.4680°N, 87.1740°E)
Time: 19:13:21
(UTC+00:00)

Okean 2 - Pass Details

Date: 06 August 2021
Orbit: 558 x 577 km, 82.5° (Epoch: 16 September)

Event Time Altitude Azimuth Distance (km) Brightness Sun altitude
Rises 18:50:52 0° 356° (N) 2,800 8.1 -29.6°
Reaches altitude 10° 18:53:07 10° 1° (N) 1,895 7.0 -29.5°
Enters shadow 18:55:47 35° 23° (NNE) 938 4.9 -29.4°
